PIZ25 LSZS-LFMT

Flight info

Callsign PIZ25
Flight time 1h 38m
Altitude 25000
Route PELAD Z119 SOSON DCT ESOKO DCT GIGUS DCT NG
Aircraft PC12/L-SDFGRWY/S

Departure

Time 2026-04-21 17:41
Airport Engadin Airport (LSZS)

Arrival

Time 2026-04-21 19:19
Airport Montpellier-Méditerranée Airport (LFMT)
Time Latitude Longitude Altitude Speed Heading
2026-04-21 17:28 46.53081 9.87943 5603 ft 0 kts 120°
2026-04-21 17:35 46.53071 9.87957 5605 ft 6 kts 155°
2026-04-21 17:35 46.53020 9.87942 5597 ft 8 kts 169°
2026-04-21 17:35 46.52980 9.88009 5601 ft 9 kts 121°
2026-04-21 17:35 46.52949 9.88095 5599 ft 10 kts 117°
2026-04-21 17:36 46.52953 9.88158 5597 ft 7 kts 38°
2026-04-21 17:36 46.53001 9.88197 5602 ft 9 kts 29°
2026-04-21 17:36 46.53064 9.88248 5605 ft 12 kts 29°
2026-04-21 17:36 46.53142 9.88313 5597 ft 14 kts 30°
2026-04-21 17:37 46.53233 9.88386 5602 ft 16 kts 29°
2026-04-21 17:37 46.53330 9.88464 5601 ft 17 kts 29°
2026-04-21 17:37 46.53435 9.88549 5599 ft 18 kts 29°
2026-04-21 17:37 46.53546 9.88639 5595 ft 18 kts 30°
2026-04-21 17:38 46.53660 9.88730 5593 ft 19 kts 29°
2026-04-21 17:38 46.53778 9.88827 5596 ft 20 kts 30°
2026-04-21 17:38 46.53896 9.88927 5596 ft 20 kts 28°
2026-04-21 17:38 46.54015 9.89019 5588 ft 18 kts 30°
2026-04-21 17:39 46.54094 9.89062 5586 ft 10 kts 346°
2026-04-21 17:39 46.54108 9.89051 5586 ft 0 kts 320°
2026-04-21 17:39 46.54111 9.89047 5587 ft 3 kts 316°
2026-04-21 17:40 46.54129 9.88977 5590 ft 9 kts 255°
2026-04-21 17:40 46.54062 9.88917 5589 ft 17 kts 209°
2026-04-21 17:40 46.53826 9.88724 5592 ft 65 kts 209°
2026-04-21 17:40 46.53282 9.88282 5636 ft 106 kts 207°
2026-04-21 17:41 46.52605 9.87804 5952 ft 117 kts 206°
2026-04-21 17:41 46.51837 9.87282 6420 ft 124 kts 208°
2026-04-21 17:41 46.51242 9.86388 6865 ft 129 kts 243°
2026-04-21 17:41 46.50606 9.85400 7306 ft 139 kts 224°
2026-04-21 17:42 46.49856 9.84474 7861 ft 146 kts 223°
2026-04-21 17:42 46.49140 9.83617 8453 ft 154 kts 222°
2026-04-21 17:42 46.48442 9.82791 8944 ft 158 kts 222°
2026-04-21 17:42 46.47569 9.81764 9529 ft 164 kts 222°
2026-04-21 17:43 46.46668 9.80705 10098 ft 169 kts 221°
2026-04-21 17:43 46.45828 9.79718 10589 ft 172 kts 223°
2026-04-21 17:43 46.44891 9.78619 11140 ft 175 kts 224°
2026-04-21 17:43 46.43926 9.77487 11700 ft 182 kts 223°
2026-04-21 17:44 46.42928 9.76316 12275 ft 187 kts 224°
2026-04-21 17:44 46.41906 9.75117 12856 ft 190 kts 224°
2026-04-21 17:44 46.40886 9.73922 13435 ft 191 kts 225°
2026-04-21 17:44 46.39850 9.72708 14010 ft 191 kts 225°
2026-04-21 17:45 46.38877 9.71434 14556 ft 185 kts 240°
2026-04-21 17:45 46.38432 9.69760 15089 ft 174 kts 267°
2026-04-21 17:45 46.38591 9.68073 15664 ft 169 kts 291°
2026-04-21 17:45 46.39272 9.66689 16234 ft 171 kts 312°
2026-04-21 17:46 46.40135 9.65533 16816 ft 168 kts 313°
2026-04-21 17:46 46.40988 9.64389 17400 ft 166 kts 312°
2026-04-21 17:46 46.41829 9.63258 17996 ft 164 kts 312°
2026-04-21 17:46 46.42655 9.62147 18550 ft 159 kts 311°
2026-04-21 17:47 46.43456 9.61070 19087 ft 155 kts 311°
2026-04-21 17:47 46.44225 9.60034 19595 ft 152 kts 311°
2026-04-21 17:47 46.45017 9.58961 19965 ft 159 kts 311°
2026-04-21 17:47 46.45513 9.57579 20357 ft 156 kts 288°
2026-04-21 17:48 46.45718 9.56550 20619 ft 157 kts 289°
2026-04-21 17:48 46.46189 9.54547 21136 ft 160 kts 292°
2026-04-21 17:48 46.46580 9.53022 21530 ft 162 kts 292°
2026-04-21 17:48 46.46979 9.51480 21929 ft 164 kts 292°
2026-04-21 17:49 46.47378 9.49933 22338 ft 164 kts 292°
2026-04-21 17:49 46.47777 9.48383 22744 ft 165 kts 292°
2026-04-21 17:49 46.48177 9.46832 23159 ft 163 kts 293°
2026-04-21 17:49 46.48573 9.45290 23582 ft 163 kts 293°
2026-04-21 17:50 46.48962 9.43778 23921 ft 156 kts 293°
2026-04-21 17:50 46.49333 9.42330 24272 ft 154 kts 293°
2026-04-21 17:50 46.49730 9.40792 24390 ft 170 kts 293°
2026-04-21 17:50 46.50155 9.39140 24507 ft 179 kts 293°
2026-04-21 17:51 46.50594 9.37427 24636 ft 182 kts 293°
2026-04-21 17:51 46.51037 9.35694 24757 ft 184 kts 293°
2026-04-21 17:51 46.51487 9.33932 24884 ft 189 kts 293°
2026-04-21 17:51 46.51948 9.32134 24995 ft 190 kts 293°
2026-04-21 17:52 46.52407 9.30339 25022 ft 194 kts 293°
2026-04-21 17:52 46.52888 9.28458 25020 ft 198 kts 292°
2026-04-21 17:52 46.53363 9.26592 25026 ft 201 kts 292°
2026-04-21 17:52 46.53852 9.24671 25021 ft 203 kts 293°
2026-04-21 17:53 46.54342 9.22746 25023 ft 203 kts 292°
2026-04-21 17:53 46.54835 9.20809 25022 ft 204 kts 292°
2026-04-21 17:53 46.55326 9.18877 25022 ft 204 kts 292°
2026-04-21 17:53 46.55820 9.16933 25023 ft 205 kts 292°
2026-04-21 17:54 46.56313 9.14987 25022 ft 204 kts 292°
2026-04-21 17:54 46.56798 9.13075 25026 ft 205 kts 292°
2026-04-21 17:54 46.57291 9.11129 25029 ft 206 kts 292°
2026-04-21 17:54 46.57778 9.09204 25030 ft 199 kts 292°
2026-04-21 17:55 46.58253 9.07324 25036 ft 199 kts 292°
2026-04-21 17:55 46.58734 9.05426 25030 ft 200 kts 293°
2026-04-21 17:55 46.59211 9.03534 25031 ft 200 kts 293°
2026-04-21 17:55 46.59693 9.01622 25028 ft 202 kts 292°
2026-04-21 17:56 46.60176 8.99706 25029 ft 202 kts 292°
2026-04-21 17:56 46.60536 8.97748 25043 ft 203 kts 280°
2026-04-21 17:56 46.60555 8.95678 25046 ft 206 kts 277°
2026-04-21 17:56 46.60551 8.93575 25041 ft 209 kts 278°
2026-04-21 17:57 46.60559 8.91466 25033 ft 207 kts 277°
2026-04-21 17:57 46.60571 8.89384 25038 ft 205 kts 278°
2026-04-21 17:57 46.60582 8.87314 25039 ft 204 kts 278°
2026-04-21 17:57 46.60593 8.85263 25041 ft 206 kts 278°
2026-04-21 17:58 46.60602 8.83177 25042 ft 205 kts 278°
2026-04-21 17:58 46.60612 8.81082 25029 ft 207 kts 278°
2026-04-21 17:58 46.60617 8.79016 25037 ft 203 kts 278°
2026-04-21 17:58 46.60623 8.76973 25041 ft 201 kts 278°
2026-04-21 17:59 46.60632 8.74909 25034 ft 206 kts 278°
2026-04-21 17:59 46.60637 8.72843 25055 ft 205 kts 278°
2026-04-21 17:59 46.60644 8.70776 25045 ft 207 kts 278°
2026-04-21 17:59 46.60648 8.68679 25046 ft 208 kts 278°
2026-04-21 18:00 46.60653 8.66566 25043 ft 209 kts 278°
2026-04-21 18:00 46.60658 8.64448 25041 ft 209 kts 278°
2026-04-21 18:00 46.60662 8.62343 25038 ft 208 kts 278°
2026-04-21 18:00 46.60645 8.60243 25054 ft 210 kts 274°
2026-04-21 18:01 46.60099 8.58162 25063 ft 234 kts 252°
2026-04-21 18:01 46.59161 8.56183 25049 ft 239 kts 249°
2026-04-21 18:01 46.58196 8.54238 25038 ft 234 kts 250°
2026-04-21 18:01 46.57273 8.52307 25032 ft 231 kts 251°
2026-04-21 18:02 46.56364 8.50368 25041 ft 234 kts 251°
2026-04-21 18:02 46.55438 8.48407 25033 ft 236 kts 251°
2026-04-21 18:02 46.54501 8.46447 25035 ft 237 kts 250°
2026-04-21 18:02 46.53560 8.44477 25018 ft 237 kts 251°
2026-04-21 18:03 46.52618 8.42501 25043 ft 240 kts 250°
2026-04-21 18:03 46.51678 8.40521 25024 ft 241 kts 251°
2026-04-21 18:03 46.50720 8.38524 25024 ft 240 kts 251°
2026-04-21 18:03 46.49768 8.36536 25020 ft 239 kts 250°
2026-04-21 18:04 46.48822 8.34558 25020 ft 238 kts 251°
2026-04-21 18:04 46.47879 8.32582 25020 ft 238 kts 251°
2026-04-21 18:04 46.46933 8.30601 25022 ft 240 kts 251°
2026-04-21 18:04 46.45977 8.28609 25018 ft 239 kts 251°
2026-04-21 18:05 46.45023 8.26623 25014 ft 240 kts 251°
2026-04-21 18:05 46.44068 8.24633 25016 ft 240 kts 251°
2026-04-21 18:05 46.43112 8.22643 25013 ft 241 kts 251°
2026-04-21 18:05 46.42153 8.20646 25008 ft 242 kts 251°
2026-04-21 18:06 46.41191 8.18646 25007 ft 243 kts 251°
2026-04-21 18:06 46.40235 8.16659 25006 ft 243 kts 251°
2026-04-21 18:06 46.39267 8.14650 25000 ft 244 kts 251°
2026-04-21 18:06 46.38293 8.12628 24998 ft 244 kts 251°
2026-04-21 18:07 46.37330 8.10641 25003 ft 240 kts 251°
2026-04-21 18:07 46.36373 8.08655 24999 ft 240 kts 251°
2026-04-21 18:07 46.35414 8.06663 25007 ft 242 kts 251°
2026-04-21 18:07 46.34448 8.04664 25001 ft 243 kts 251°
2026-04-21 18:08 46.33477 8.02658 24999 ft 243 kts 251°
2026-04-21 18:08 46.32507 8.00654 24994 ft 243 kts 251°
2026-04-21 18:08 46.31537 7.98654 24992 ft 242 kts 251°
2026-04-21 18:08 46.30572 7.96666 24992 ft 241 kts 251°
2026-04-21 18:09 46.29610 7.94680 24990 ft 241 kts 250°
2026-04-21 18:09 46.28660 7.92723 25000 ft 241 kts 250°
2026-04-21 18:09 46.28005 7.91371 24997 ft 243 kts 250°
2026-04-21 18:09 46.26719 7.88727 24989 ft 243 kts 250°
2026-04-21 18:10 46.25747 7.86739 24994 ft 239 kts 251°
2026-04-21 18:10 46.24790 7.84777 24989 ft 238 kts 251°
2026-04-21 18:10 46.23842 7.82826 24989 ft 236 kts 251°
2026-04-21 18:10 46.22906 7.80915 24974 ft 229 kts 251°
2026-04-21 18:11 46.22001 7.79070 24984 ft 220 kts 251°
2026-04-21 18:11 46.21129 7.77298 25004 ft 216 kts 251°
2026-04-21 18:11 46.20249 7.75516 24983 ft 220 kts 251°
2026-04-21 18:11 46.19376 7.73693 24982 ft 221 kts 252°
2026-04-21 18:12 46.18488 7.71836 24999 ft 229 kts 251°
2026-04-21 18:12 46.17556 7.69925 24994 ft 236 kts 250°
2026-04-21 18:12 46.16610 7.68011 24984 ft 237 kts 250°
2026-04-21 18:12 46.15654 7.66076 24994 ft 238 kts 250°
2026-04-21 18:13 46.14694 7.64110 24988 ft 241 kts 250°
2026-04-21 18:13 46.13726 7.62133 24975 ft 242 kts 249°
2026-04-21 18:13 46.12755 7.60164 24983 ft 240 kts 249°
2026-04-21 18:13 46.11787 7.58194 24985 ft 242 kts 249°
2026-04-21 18:14 46.09833 7.54221 24978 ft 242 kts 249°
2026-04-21 18:14 46.08855 7.52236 24978 ft 244 kts 249°
2026-04-21 18:14 46.07872 7.50239 24971 ft 244 kts 249°
2026-04-21 18:15 46.06893 7.48258 24984 ft 242 kts 249°
2026-04-21 18:15 46.06245 7.46942 24984 ft 244 kts 249°
2026-04-21 18:15 46.05261 7.44946 24978 ft 245 kts 249°
2026-04-21 18:15 46.04275 7.42958 24976 ft 242 kts 249°
2026-04-21 18:16 46.03297 7.40982 24982 ft 243 kts 249°
2026-04-21 18:16 46.02316 7.38992 24972 ft 243 kts 249°
2026-04-21 18:16 46.01334 7.37016 24979 ft 241 kts 249°
2026-04-21 18:16 46.00370 7.35066 24989 ft 245 kts 249°
2026-04-21 18:17 45.99367 7.33036 24984 ft 246 kts 248°
2026-04-21 18:17 45.98383 7.31060 24988 ft 246 kts 248°
2026-04-21 18:17 45.97387 7.29059 24952 ft 245 kts 248°
2026-04-21 18:17 45.96400 7.27081 24950 ft 242 kts 248°
2026-04-21 18:18 45.95425 7.25113 24958 ft 243 kts 248°
2026-04-21 18:18 45.94442 7.23125 24955 ft 245 kts 248°
2026-04-21 18:18 45.93450 7.21134 24956 ft 245 kts 248°
2026-04-21 18:18 45.92448 7.19128 24940 ft 244 kts 247°
2026-04-21 18:19 45.91466 7.17175 24963 ft 240 kts 248°
2026-04-21 18:19 45.90496 7.15225 24958 ft 240 kts 248°
2026-04-21 18:19 45.89533 7.13289 24958 ft 243 kts 248°
2026-04-21 18:19 45.88546 7.11312 24953 ft 243 kts 248°
2026-04-21 18:20 45.87504 7.09372 24957 ft 252 kts 239°
2026-04-21 18:20 45.86223 7.07625 24959 ft 256 kts 236°
2026-04-21 18:20 45.84920 7.05892 24962 ft 254 kts 237°
2026-04-21 18:20 45.83637 7.04148 24960 ft 255 kts 237°
2026-04-21 18:21 45.82350 7.02385 24954 ft 256 kts 237°
2026-04-21 18:21 45.81056 7.00629 24968 ft 256 kts 237°
2026-04-21 18:21 45.79755 6.98865 24968 ft 258 kts 237°
2026-04-21 18:21 45.78443 6.97087 24966 ft 260 kts 237°
2026-04-21 18:22 45.77132 6.95314 24969 ft 260 kts 236°
2026-04-21 18:22 45.75816 6.93533 24969 ft 259 kts 237°
2026-04-21 18:22 45.74505 6.91760 24975 ft 258 kts 237°
2026-04-21 18:22 45.73223 6.90030 24996 ft 254 kts 237°
2026-04-21 18:23 45.71937 6.88296 24986 ft 250 kts 236°
2026-04-21 18:23 45.70673 6.86591 24992 ft 251 kts 237°
2026-04-21 18:23 45.69408 6.84878 24993 ft 249 kts 237°
2026-04-21 18:23 45.68141 6.83166 24987 ft 253 kts 237°
2026-04-21 18:24 45.66855 6.81430 24991 ft 255 kts 236°
2026-04-21 18:24 45.65552 6.79677 24987 ft 258 kts 236°
2026-04-21 18:24 45.64243 6.77918 24978 ft 257 kts 236°
2026-04-21 18:24 45.62949 6.76188 24996 ft 254 kts 237°
2026-04-21 18:25 45.61654 6.74439 24983 ft 257 kts 236°
2026-04-21 18:25 45.60349 6.72686 24991 ft 257 kts 236°
2026-04-21 18:25 45.59048 6.70945 24981 ft 256 kts 236°
2026-04-21 18:25 45.57748 6.69203 24984 ft 256 kts 236°
2026-04-21 18:26 45.56449 6.67461 24990 ft 256 kts 235°
2026-04-21 18:26 45.55153 6.65726 24981 ft 255 kts 236°
2026-04-21 18:26 45.53855 6.63987 24977 ft 257 kts 236°
2026-04-21 18:26 45.52548 6.62237 24971 ft 258 kts 236°
2026-04-21 18:27 45.51252 6.60507 24982 ft 259 kts 235°
2026-04-21 18:27 45.49933 6.58746 24969 ft 260 kts 235°
2026-04-21 18:27 45.48606 6.56974 24971 ft 261 kts 235°
2026-04-21 18:27 45.47279 6.55205 24971 ft 261 kts 235°
2026-04-21 18:28 45.45953 6.53441 24968 ft 260 kts 235°
2026-04-21 18:28 45.44628 6.51674 24971 ft 261 kts 235°
2026-04-21 18:28 45.43300 6.49904 24969 ft 262 kts 235°
2026-04-21 18:28 45.41965 6.48131 24971 ft 261 kts 235°
2026-04-21 18:29 45.40639 6.46372 24974 ft 261 kts 235°
2026-04-21 18:29 45.39310 6.44602 24972 ft 262 kts 235°
2026-04-21 18:29 45.38033 6.42795 24962 ft 259 kts 236°
2026-04-21 18:29 45.36729 6.41041 24964 ft 257 kts 234°
2026-04-21 18:30 45.35435 6.39304 24972 ft 256 kts 235°
2026-04-21 18:30 45.34153 6.37528 24964 ft 257 kts 236°
2026-04-21 18:30 45.32870 6.35748 24966 ft 258 kts 236°
2026-04-21 18:30 45.31584 6.33980 24971 ft 257 kts 236°
2026-04-21 18:31 45.30298 6.32217 24967 ft 257 kts 236°
2026-04-21 18:31 45.29015 6.30456 24966 ft 256 kts 236°
2026-04-21 18:31 45.27741 6.28707 24965 ft 254 kts 236°
2026-04-21 18:31 45.26482 6.26978 24969 ft 256 kts 236°
2026-04-21 18:32 45.25199 6.25216 24964 ft 257 kts 235°
2026-04-21 18:32 45.23913 6.23456 24962 ft 257 kts 235°
2026-04-21 18:32 45.22622 6.21689 24963 ft 258 kts 235°
2026-04-21 18:32 45.21322 6.19910 24963 ft 259 kts 235°
2026-04-21 18:33 45.20029 6.18145 24963 ft 256 kts 235°
2026-04-21 18:33 45.18749 6.16398 24966 ft 256 kts 235°
2026-04-21 18:33 45.17460 6.14632 24971 ft 259 kts 235°
2026-04-21 18:33 45.16156 6.12848 24971 ft 262 kts 234°
2026-04-21 18:34 45.14841 6.11058 24971 ft 262 kts 235°
2026-04-21 18:34 45.13522 6.09263 24969 ft 263 kts 234°
2026-04-21 18:34 45.12218 6.07487 24965 ft 264 kts 234°
2026-04-21 18:34 45.10892 6.05682 24972 ft 264 kts 234°
2026-04-21 18:35 45.10011 6.04484 24967 ft 265 kts 234°
2026-04-21 18:35 45.08235 6.02072 24964 ft 264 kts 234°
2026-04-21 18:35 45.06910 6.00274 24963 ft 262 kts 234°
2026-04-21 18:35 45.05619 5.98531 24989 ft 249 kts 235°
2026-04-21 18:36 45.04370 5.96837 24959 ft 248 kts 235°
2026-04-21 18:36 45.03146 5.95175 24972 ft 239 kts 235°
2026-04-21 18:36 45.01960 5.93568 24988 ft 238 kts 236°
2026-04-21 18:36 45.00765 5.91932 24980 ft 245 kts 235°
2026-04-21 18:37 44.99515 5.90238 24977 ft 251 kts 235°
2026-04-21 18:37 44.98242 5.88521 24979 ft 255 kts 234°
2026-04-21 18:37 44.96956 5.86790 24958 ft 256 kts 234°
2026-04-21 18:37 44.95681 5.85076 24964 ft 249 kts 234°
2026-04-21 18:38 44.94436 5.83398 24984 ft 247 kts 235°
2026-04-21 18:38 44.93183 5.81697 24975 ft 251 kts 234°
2026-04-21 18:38 44.91911 5.79979 24972 ft 254 kts 234°
2026-04-21 18:38 44.90630 5.78257 24976 ft 255 kts 234°
2026-04-21 18:39 44.89341 5.76526 24968 ft 256 kts 234°
2026-04-21 18:39 44.88053 5.74794 24976 ft 256 kts 234°
2026-04-21 18:39 44.86763 5.73059 24971 ft 257 kts 234°
2026-04-21 18:39 44.85468 5.71317 24964 ft 258 kts 234°
2026-04-21 18:40 44.84180 5.69587 24964 ft 259 kts 234°
2026-04-21 18:40 44.82872 5.67833 24965 ft 260 kts 234°
2026-04-21 18:40 44.81986 5.66646 24958 ft 260 kts 234°
2026-04-21 18:40 44.80248 5.64317 24957 ft 261 kts 234°
2026-04-21 18:41 44.78935 5.62561 24960 ft 260 kts 234°
2026-04-21 18:41 44.77633 5.60822 24954 ft 256 kts 234°
2026-04-21 18:41 44.76342 5.59095 24969 ft 256 kts 234°
2026-04-21 18:41 44.75043 5.57354 24962 ft 258 kts 234°
2026-04-21 18:42 44.73740 5.55612 24961 ft 259 kts 233°
2026-04-21 18:42 44.72428 5.53862 24950 ft 260 kts 233°
2026-04-21 18:42 44.71137 5.52146 24940 ft 257 kts 233°
2026-04-21 18:42 44.69851 5.50438 24966 ft 252 kts 234°
2026-04-21 18:43 44.68577 5.48732 24958 ft 254 kts 234°
2026-04-21 18:43 44.67287 5.47009 24963 ft 257 kts 233°
2026-04-21 18:43 44.65980 5.45271 24962 ft 259 kts 233°
2026-04-21 18:43 44.64669 5.43530 24958 ft 260 kts 233°
2026-04-21 18:44 44.63350 5.41779 24953 ft 261 kts 233°
2026-04-21 18:44 44.62028 5.40024 24949 ft 261 kts 233°
2026-04-21 18:44 44.60712 5.38281 24959 ft 260 kts 233°
2026-04-21 18:44 44.59395 5.36533 24950 ft 261 kts 233°
2026-04-21 18:45 44.58074 5.34782 24949 ft 261 kts 233°
2026-04-21 18:45 44.56769 5.33058 24946 ft 261 kts 233°
2026-04-21 18:45 44.55449 5.31313 24946 ft 261 kts 233°
2026-04-21 18:45 44.54127 5.29563 24941 ft 262 kts 233°
2026-04-21 18:46 44.52799 5.27806 24942 ft 263 kts 233°
2026-04-21 18:46 44.51465 5.26045 24939 ft 263 kts 233°
2026-04-21 18:46 44.50130 5.24284 24937 ft 264 kts 233°
2026-04-21 18:46 44.48792 5.22518 24934 ft 265 kts 233°
2026-04-21 18:47 44.47449 5.20748 24933 ft 265 kts 233°
2026-04-21 18:47 44.46110 5.18983 24922 ft 264 kts 233°
2026-04-21 18:47 44.44775 5.17225 24910 ft 263 kts 233°
2026-04-21 18:47 44.43452 5.15488 24924 ft 260 kts 233°
2026-04-21 18:48 44.42141 5.13766 24930 ft 258 kts 233°
2026-04-21 18:48 44.40845 5.12058 24929 ft 260 kts 233°
2026-04-21 18:48 44.39519 5.10314 24925 ft 262 kts 232°
2026-04-21 18:48 44.38183 5.08564 24918 ft 263 kts 232°
2026-04-21 18:49 44.36849 5.06816 24916 ft 263 kts 232°
2026-04-21 18:49 44.35514 5.05070 24917 ft 263 kts 232°
2026-04-21 18:49 44.34626 5.03908 24916 ft 264 kts 232°
2026-04-21 18:49 44.32831 5.01558 24914 ft 264 kts 232°
2026-04-21 18:50 44.31500 4.99817 24912 ft 265 kts 232°
2026-04-21 18:50 44.30155 4.98060 24911 ft 265 kts 232°
2026-04-21 18:50 44.28807 4.96300 24904 ft 265 kts 232°
2026-04-21 18:50 44.27460 4.94541 24903 ft 265 kts 232°
2026-04-21 18:51 44.26110 4.92781 24904 ft 265 kts 232°
2026-04-21 18:51 44.24763 4.91026 24905 ft 265 kts 232°
2026-04-21 18:51 44.23416 4.89271 24907 ft 265 kts 232°
2026-04-21 18:51 44.22069 4.87517 24905 ft 265 kts 232°
2026-04-21 18:52 44.20719 4.85760 24908 ft 265 kts 232°
2026-04-21 18:52 44.19369 4.84006 24903 ft 265 kts 232°
2026-04-21 18:52 44.18020 4.82253 24903 ft 265 kts 232°
2026-04-21 18:52 44.16687 4.80523 24903 ft 265 kts 232°
2026-04-21 18:53 44.15319 4.78748 24905 ft 265 kts 232°
2026-04-21 18:53 44.13983 4.77016 24903 ft 265 kts 232°
2026-04-21 18:53 44.12630 4.75262 24905 ft 266 kts 231°
2026-04-21 18:53 44.11276 4.73509 24904 ft 266 kts 231°
2026-04-21 18:54 44.09913 4.71742 24726 ft 270 kts 231°
2026-04-21 18:54 44.08543 4.69968 24360 ft 268 kts 231°
2026-04-21 18:54 44.07178 4.68207 24005 ft 267 kts 231°
2026-04-21 18:54 44.05821 4.66454 23658 ft 266 kts 231°
2026-04-21 18:55 44.04924 4.65296 23415 ft 265 kts 231°
2026-04-21 18:55 44.03132 4.62984 22867 ft 265 kts 231°
2026-04-21 18:55 44.01787 4.61250 22468 ft 264 kts 230°
2026-04-21 18:55 44.00442 4.59518 22065 ft 263 kts 230°
2026-04-21 18:56 43.99101 4.57791 21660 ft 263 kts 230°
2026-04-21 18:56 43.97762 4.56069 21285 ft 262 kts 230°
2026-04-21 18:56 43.96425 4.54351 20903 ft 261 kts 230°
2026-04-21 18:56 43.95092 4.52637 20523 ft 260 kts 230°
2026-04-21 18:57 43.93766 4.50934 20151 ft 260 kts 229°
2026-04-21 18:57 43.92441 4.49235 19783 ft 259 kts 229°
2026-04-21 18:57 43.91118 4.47538 19423 ft 258 kts 229°
2026-04-21 18:57 43.89800 4.45850 19061 ft 258 kts 229°
2026-04-21 18:58 43.88487 4.44167 18707 ft 257 kts 229°
2026-04-21 18:58 43.87175 4.42488 18354 ft 256 kts 229°
2026-04-21 18:58 43.85869 4.40813 17972 ft 254 kts 229°
2026-04-21 18:58 43.84707 4.39046 17576 ft 250 kts 234°
2026-04-21 18:59 43.83549 4.37247 17180 ft 250 kts 233°
2026-04-21 18:59 43.82390 4.35452 16792 ft 249 kts 233°
2026-04-21 18:59 43.81240 4.33665 16406 ft 248 kts 233°
2026-04-21 18:59 43.80092 4.31876 16020 ft 247 kts 233°
2026-04-21 19:00 43.78949 4.30099 15644 ft 246 kts 233°
2026-04-21 19:00 43.77811 4.28332 15274 ft 245 kts 233°
2026-04-21 19:00 43.76676 4.26571 14906 ft 244 kts 233°
2026-04-21 19:01 43.75238 4.24340 14444 ft 243 kts 233°
2026-04-21 19:01 43.74117 4.22603 14089 ft 242 kts 233°
2026-04-21 19:01 43.72998 4.20868 13731 ft 240 kts 233°
2026-04-21 19:01 43.71885 4.19146 13337 ft 239 kts 233°
2026-04-21 19:02 43.70778 4.17433 12946 ft 238 kts 232°
2026-04-21 19:02 43.69674 4.15726 12560 ft 238 kts 232°
2026-04-21 19:02 43.68945 4.14599 12300 ft 237 kts 232°
2026-04-21 19:02 43.67486 4.12345 11796 ft 236 kts 232°
2026-04-21 19:03 43.66393 4.10657 11423 ft 236 kts 232°
2026-04-21 19:03 43.65652 4.09514 11172 ft 235 kts 232°
2026-04-21 19:03 43.64563 4.07834 10807 ft 234 kts 232°
2026-04-21 19:03 43.63475 4.06157 10449 ft 234 kts 232°
2026-04-21 19:04 43.62403 4.04506 10101 ft 233 kts 232°
2026-04-21 19:04 43.61316 4.02832 9736 ft 233 kts 232°
2026-04-21 19:04 43.60235 4.01168 9348 ft 233 kts 232°
2026-04-21 19:04 43.59019 3.99704 8959 ft 236 kts 213°
2026-04-21 19:05 43.57428 3.99094 8574 ft 243 kts 186°
2026-04-21 19:05 43.55764 3.99552 8200 ft 249 kts 158°
2026-04-21 19:05 43.54306 4.00821 7832 ft 248 kts 147°
2026-04-21 19:05 43.52910 4.02204 7462 ft 245 kts 146°
2026-04-21 19:06 43.51597 4.03488 7084 ft 223 kts 147°
2026-04-21 19:06 43.50369 4.04659 6732 ft 207 kts 147°
2026-04-21 19:06 43.49221 4.05755 6373 ft 195 kts 147°
2026-04-21 19:06 43.48129 4.06801 5993 ft 187 kts 147°
2026-04-21 19:07 43.47078 4.07808 5617 ft 181 kts 146°
2026-04-21 19:07 43.46060 4.08784 5243 ft 176 kts 146°
2026-04-21 19:07 43.45067 4.09736 4875 ft 172 kts 146°
2026-04-21 19:07 43.44090 4.10673 4502 ft 170 kts 146°
2026-04-21 19:08 43.43129 4.11592 4123 ft 167 kts 145°
2026-04-21 19:08 43.42180 4.12500 3753 ft 165 kts 144°
2026-04-21 19:08 43.41253 4.13413 3380 ft 162 kts 136°
2026-04-21 19:08 43.40705 4.14705 3028 ft 156 kts 99°
2026-04-21 19:09 43.40789 4.16154 2672 ft 152 kts 67°
2026-04-21 19:09 43.41431 4.17269 2380 ft 148 kts 34°
2026-04-21 19:09 43.42331 4.17820 2251 ft 137 kts 21°
2026-04-21 19:09 43.43203 4.18277 2127 ft 129 kts 22°
2026-04-21 19:10 43.43978 4.18689 2027 ft 109 kts 22°
2026-04-21 19:10 43.44621 4.19030 2013 ft 90 kts 22°
2026-04-21 19:10 43.45161 4.19314 2020 ft 83 kts 21°
2026-04-21 19:10 43.45715 4.19598 2023 ft 88 kts 17°
2026-04-21 19:11 43.46321 4.19501 2033 ft 96 kts 326°
2026-04-21 19:11 43.46755 4.18782 2032 ft 99 kts 312°
2026-04-21 19:11 43.47198 4.18035 2033 ft 102 kts 311°
2026-04-21 19:11 43.47633 4.17254 2033 ft 103 kts 310°
2026-04-21 19:12 43.48060 4.16452 2034 ft 104 kts 309°
2026-04-21 19:12 43.48482 4.15640 2032 ft 104 kts 309°
2026-04-21 19:12 43.48902 4.14829 2027 ft 103 kts 309°
2026-04-21 19:12 43.49309 4.14037 2028 ft 100 kts 308°
2026-04-21 19:13 43.49701 4.13255 2026 ft 99 kts 309°
2026-04-21 19:13 43.50090 4.12482 2027 ft 97 kts 309°
2026-04-21 19:13 43.50476 4.11721 2026 ft 97 kts 308°
2026-04-21 19:13 43.50858 4.10959 2022 ft 96 kts 309°
2026-04-21 19:14 43.51236 4.10209 2021 ft 96 kts 309°
2026-04-21 19:14 43.51619 4.09454 1941 ft 96 kts 309°
2026-04-21 19:14 43.51990 4.08713 1820 ft 91 kts 309°
2026-04-21 19:14 43.52341 4.08017 1704 ft 86 kts 310°
2026-04-21 19:15 43.52674 4.07354 1592 ft 82 kts 310°
2026-04-21 19:15 43.52996 4.06717 1477 ft 80 kts 309°
2026-04-21 19:15 43.53308 4.06094 1375 ft 79 kts 309°
2026-04-21 19:15 43.53626 4.05466 1271 ft 81 kts 308°
2026-04-21 19:16 43.53947 4.04825 1163 ft 81 kts 308°
2026-04-21 19:16 43.54271 4.04185 1055 ft 81 kts 308°
2026-04-21 19:16 43.54589 4.03549 950 ft 80 kts 308°
2026-04-21 19:16 43.54902 4.02930 847 ft 79 kts 307°
2026-04-21 19:17 43.55525 4.01693 640 ft 78 kts 306°
2026-04-21 19:17 43.55832 4.01080 539 ft 77 kts 305°
2026-04-21 19:17 43.56137 4.00475 434 ft 77 kts 304°
2026-04-21 19:18 43.56441 3.99870 334 ft 77 kts 304°
2026-04-21 19:18 43.56742 3.99264 231 ft 77 kts 303°
2026-04-21 19:18 43.57043 3.98662 125 ft 76 kts 303°
2026-04-21 19:18 43.57351 3.98067 28 ft 74 kts 304°
2026-04-21 19:19 43.57611 3.97542 16 ft 58 kts 306°
2026-04-21 19:19 43.57808 3.97156 14 ft 22 kts 302°
2026-04-21 19:19 43.57799 3.97040 13 ft 15 kts 216°
2026-04-21 19:19 43.57734 3.96950 13 ft 14 kts 262°
2026-04-21 19:20 43.57790 3.96800 13 ft 22 kts 304°
2026-04-21 19:20 43.57887 3.96608 13 ft 25 kts 303°
2026-04-21 19:20 43.57919 3.96472 13 ft 12 kts 197°
2026-04-21 19:20 43.57833 3.96454 13 ft 13 kts 188°
2026-04-21 19:21 43.57784 3.96384 13 ft 13 kts 306°
2026-04-21 19:21 43.57834 3.96289 13 ft 8 kts 304°
2026-04-21 19:21 43.57869 3.96220 13 ft 8 kts 304°
2026-04-21 19:21 43.57855 3.96177 13 ft 7 kts 176°
2026-04-21 19:22 43.57829 3.96181 13 ft 0 kts 172°